Home   Weather   Mudgee   Past weeks
Flag for Australia

Past Weather in Mudgee, New South Wales, Australia — Yesterday and Last 2 Weeks

Now
38 °F

Chilly.


Feels Like: 38 °F
Forecast: 75 / 36 °F
Wind: 1 mph from South

Location: Mudgee Aws

Current Time: Oct 19, 2019 at 8:33:07 am

Latest Report: Oct 19, 2019 at 7:00 am


Visibility: N/A

Pressure: 30.04 "Hg

Humidity: 66%

Dew Point: 28 °F

Location of MudgeeLocation

Past Weather in Mudgee — Graph

°F

Mudgee Temperature Yesterday

Maximum temperature yesterday: 74 °F (at 4:00 pm)
Minimum temperature yesterday: 41 °F (at 6:00 am)
Average temperature yesterday: 58 °F

High & Low Weather Summary for the Past Weeks

 TemperatureHumidityPressure
High92 °F (Oct 6, 3:00 pm)98% (Oct 11, 9:00 pm)30.20 "Hg (Oct 11, 9:00 pm)
Low36 °F (Oct 9, 7:00 am)11% (Oct 18, 6:00 pm)29.75 "Hg (Oct 17, 4:00 am)
Average62 °F52%30.00 "Hg
* Reported Oct 4 6:00 am — Oct 19 7:00 am, Mudgee. Weather by CustomWeather, © 2019

Note: Actual official high and low records may vary slightly from our data, if they occured in-between our weather recording intervals... More about our weather records

Advertising

Mudgee Weather History for the Previous 24 Hours

Scroll right to see more
 ConditionsComfort  
Time TempWeatherWind HumidityBarometerVisibility
7:00 am
Sat, Oct 19
38 °FChilly.1 mph66%30.04 "HgN/A
6:00 am37 °FChilly.No wind64%30.01 "HgN/A
4:00 am37 °FChilly.3 mph57%30.01 "HgN/A
3:00 am38 °FChilly.No wind59%30.01 "HgN/A
1:00 am44 °FQuite cool.2 mph44%30.02 "HgN/A
12:00 am43 °FQuite cool.7 mph44%30.03 "HgN/A
10:00 pm
Fri, Oct 18
49 °FCool.5 mph35%30.03 "HgN/A
9:00 pm60 °FRefreshingly cool.6 mph23%30.03 "HgN/A
7:00 pm69 °FMild.9 mph13%29.99 "HgN/A
6:00 pm73 °FMild.10 mph11%29.98 "HgN/A
4:00 pm74 °FMild.12 mph13%29.98 "HgN/A
3:00 pm73 °FMild.15 mph12%30.00 "HgN/A
1:00 pm71 °FMild.13 mph15%30.05 "HgN/A
12:00 pm67 °FMild.12 mph23%30.08 "HgN/A
10:00 am60 °FRefreshingly cool.10 mph34%30.10 "HgN/A
9:00 am55 °FRefreshingly cool.6 mph40%30.10 "HgN/A
Weather by CustomWeather, © 2019

See weather overview